Penn Yan, NY

10:56 AM EDT on July 22, 2017 (GMT -0400)
Penn Yan

Weather History for KPEO - April, 2014

Change the Weather History Date:

Thursday, April 17, 2014

  Actual Average (KITH) Record (KITH)
Temperature  
Mean Temperature 38 °F -  
Max Temperature 55 °F 56 °F 87 °F (2002)
Min Temperature 21 °F 35 °F 22 °F (1946)
Degree Days  
Heating Degree Days 27    
Moisture  
Dew Point 21 °F    
Average Humidity 54    
Maximum Humidity 89    
Minimum Humidity 28    
Precipitation  
Precipitation 0.00 in - - ()
Sea Level Pressure  
Sea Level Pressure 30.55 in    
Wind  
Wind Speed 5 mph (SSE)    
Max Wind Speed 17 mph    
Max Gust Speed 23 mph    
Visibility 10 miles    
Events      
Averages and records for this station are not official NWS values.
T = Trace of Precipitation, MM = Missing Value Source: NWS Daily Summary

Daily Weather History Graph

Daily Weather History Graph

Search for Another Location

Airport or City:

Trip Planner

Search our weather history database for the weather conditions in past years. The results will help you decide how hot, cold, wet, or windy it might be!

Date:

Astronomy

Apr. 17, 2014 Rise Set
Actual Time 6:23 AM EDT 7:52 PM EDT
Civil Twilight 5:54 AM EDT 8:22 PM EDT
Nautical Twilight 5:18 AM EDT 8:57 PM EDT
Astronomical Twilight 4:40 AM EDT 9:35 PM EDT
Moon 10:38 PM EDT (4/17) 7:51 AM EDT (4/17)
Length of Visible Light 14h 27m
Length of Day
13h 28m
Waning Gibbous, 94% of the Moon is Illuminated
Apr 17
Waning Gibbous
Apr 22
Last Quarter
Apr 29
New
May 6
First Quarter
May 14
Full

Hourly Weather History & Observations

Time (EDT) Temp. Windchill Dew Point Humidity Pressure Visibility Wind Dir Wind Speed Gust Speed Precip Events Conditions
12:53 AM 27.0 °F - 19.0 °F 72% 30.61 in 10.0 mi Calm Calm - N/A   Clear
1:53 AM 23.0 °F - 17.1 °F 78% 30.61 in 10.0 mi Calm Calm - N/A   Clear
2:53 AM 21.9 °F - 19.0 °F 89% 30.60 in 10.0 mi Calm Calm - N/A   Clear
3:53 AM 23.0 °F - 19.0 °F 85% 30.60 in 10.0 mi Calm Calm - N/A   Clear
4:53 AM 23.0 °F - 18.0 °F 81% 30.60 in 10.0 mi Calm Calm - N/A   Clear
5:53 AM 24.1 °F - 18.0 °F 77% 30.61 in 10.0 mi Calm Calm - N/A   Clear
6:53 AM 25.0 °F - 18.0 °F 75% 30.63 in 10.0 mi Calm Calm - N/A   Clear
7:53 AM 28.9 °F - 21.9 °F 75% 30.64 in 10.0 mi Calm Calm - N/A   Clear
8:53 AM 34.0 °F 26.0 °F 19.0 °F 54% 30.65 in 10.0 mi SE 10.4 mph - N/A   Clear
9:53 AM 37.0 °F 28.5 °F 18.0 °F 46% 30.63 in 10.0 mi SE 13.8 mph - N/A   Clear
10:53 AM 43.0 °F 35.1 °F 21.0 °F 42% 30.61 in 10.0 mi SSE 17.3 mph 23.0 mph N/A   Clear
1:53 PM 51.1 °F - 21.0 °F 31% 30.54 in 10.0 mi SSE 12.7 mph 18.4 mph N/A   Clear
2:53 PM 53.1 °F - 21.0 °F 29% 30.51 in 10.0 mi SSE 10.4 mph 19.6 mph N/A   Clear
3:53 PM 55.0 °F - 21.9 °F 28% 30.49 in 10.0 mi South 11.5 mph - N/A   Clear
4:53 PM 55.9 °F - 23.0 °F 28% 30.47 in 10.0 mi South 13.8 mph - N/A   Clear
5:53 PM 55.0 °F - 21.9 °F 28% 30.46 in 10.0 mi South 11.5 mph - N/A   Clear
6:53 PM 53.1 °F - 21.9 °F 30% 30.46 in 10.0 mi South 10.4 mph - N/A   Clear
7:53 PM 48.9 °F - 24.1 °F 38% 30.46 in 10.0 mi South 9.2 mph - N/A   Clear
8:53 PM 46.0 °F 41.4 °F 25.0 °F 44% 30.47 in 10.0 mi SSE 9.2 mph - N/A   Clear
9:53 PM 45.0 °F 39.7 °F 26.1 °F 48% 30.48 in 10.0 mi South 10.4 mph - N/A   Clear
10:53 PM 44.1 °F 39.0 °F 27.0 °F 51% 30.46 in 10.0 mi South 9.2 mph - N/A   Clear
11:53 PM 43.0 °F 38.2 °F 27.0 °F 53% 30.46 in 10.0 mi South 8.1 mph - N/A   Clear